Flag for Algeria Weather past 2 weeks in Oran, Algeria

Now
59 °F

Passing clouds.


Feels Like: 58 °F
Forecast: 60 / 71 °F
Wind: 8 mph from Southwest

Location: Oran / Es Senia


UV Index: 5 (Moderate)

Visibility: 5 mi


Pressure: 29.89 "Hg

Humidity: 94%

Dew point: 57 °F

Location of OranLocation

Historic Weather in Oran

°F

Oran temperature yesterday

Maximum temperature yesterday: 73 °F (at 12:00 PM)
Minimum temperature yesterday: 59 °F (at 2:00 AM)
Average temperature yesterday: 65 °F

Past Weeks' High & Low Weather Summary

 TemperatureHumidityPressure
High84 °F (Apr 7, 2:00 PM)100% (Apr 9, 5:00 AM)30.18 "Hg (Apr 9, 5:00 AM)
Low50 °F (Apr 5, 6:00 AM)31% (Apr 7, 3:00 PM)29.86 "Hg (Apr 11, 6:30 PM)
Average64 °F76%30.05 "Hg
* Reported Apr 4 2:00 AM — Apr 19 2:00 AM, Oran, Weather by CustomWeather, © 2014

Note: Actual official high and low records may vary slightly from our data, if they occured in-between our weather recording intervals... More about our weather records

Advertising

Historic Weather Conditions — Data for Previous 24 hours

 ConditionsComfort  
Time TempWeatherWind HumidityBarometerVisibility
2:00 AM
Apr 19
59 °FPassing clouds.9 mph94%29.89 "Hg5 mi
1:30 AM59 °FPassing clouds.9 mph94%29.92 "Hg5 mi
1:00 AM59 °FPassing clouds.7 mph94%29.92 "Hg5 mi
12:30 AM59 °FPassing clouds.12 mph94%29.92 "Hg5 mi
12:00 AM59 °FPassing clouds.9 mph94%29.92 "Hg5 mi
11:30 PM
Apr 18
59 °FPassing clouds.9 mph88%29.92 "HgN/A
11:00 PM59 °FPassing clouds.6 mph88%29.92 "HgN/A
10:30 PM61 °FClear.6 mph83%29.92 "Hg10 mi
10:00 PM61 °FClear.7 mph83%29.92 "Hg10 mi
9:30 PM61 °FClear.6 mph88%29.92 "Hg10 mi
9:00 PM63 °FClear.2 mph83%29.92 "Hg10 mi
8:30 PM63 °FClear.No wind88%29.92 "Hg10 mi
8:00 PM64 °FClear.2 mph83%29.92 "Hg10 mi
7:30 PM64 °FSunny.No wind83%29.92 "Hg10 mi
7:00 PM68 °FSunny.9 mph73%29.92 "Hg10 mi
6:30 PM72 °FSunny.12 mph69%29.89 "Hg10 mi
6:00 PM70 °FPassing clouds.2 mph73%29.92 "HgN/A
5:30 PM70 °FPassing clouds.6 mph73%29.89 "HgN/A
5:00 PM70 °FPassing clouds.9 mph73%29.92 "HgN/A
4:30 PM72 °FPassing clouds.10 mph69%29.92 "HgN/A
4:00 PM72 °FPassing clouds.10 mph69%29.92 "HgN/A
3:30 PM70 °FPassing clouds.10 mph69%29.92 "HgN/A
3:00 PM70 °FPassing clouds.10 mph69%29.92 "HgN/A
2:30 PM70 °FPassing clouds.12 mph69%29.92 "HgN/A
2:00 PM70 °FPassing clouds.15 mph69%29.95 "HgN/A
1:30 PM72 °FPassing clouds.10 mph65%29.95 "HgN/A
1:00 PM72 °FPassing clouds.9 mph65%29.98 "HgN/A
12:30 PM73 °FPassing clouds.8 mph65%29.98 "HgN/A
12:00 PM73 °FPassing clouds.10 mph65%29.98 "HgN/A
11:30 AM72 °FScattered clouds.13 mph65%29.98 "HgN/A
11:00 AM72 °FScattered clouds.13 mph65%29.98 "HgN/A
10:30 AM70 °FScattered clouds.13 mph69%29.98 "HgN/A
10:00 AM68 °FScattered clouds.12 mph73%29.98 "HgN/A
9:30 AM66 °FScattered clouds.12 mph88%29.98 "HgN/A
9:00 AM64 °FBroken clouds.10 mph94%29.98 "HgN/A
8:30 AM63 °FScattered clouds.10 mph88%29.98 "HgN/A
8:00 AM61 °FBroken clouds.7 mph94%29.98 "HgN/A
7:30 AM61 °FPartly sunny.8 mph94%29.98 "HgN/A
7:00 AM61 °FPartly sunny.5 mph94%29.98 "HgN/A
6:30 AM61 °FPartly sunny.5 mph94%29.98 "HgN/A
6:00 AM61 °FPassing clouds.5 mph94%29.98 "HgN/A
5:30 AM59 °FPassing clouds.3 mph94%29.98 "HgN/A
5:00 AM59 °FPassing clouds.5 mph94%29.98 "HgN/A
4:30 AM59 °FPassing clouds.3 mph94%29.98 "HgN/A
4:00 AM59 °FPassing clouds.3 mph94%29.98 "HgN/A
3:30 AM59 °FClear.7 mph94%29.98 "Hg10 mi
3:00 AM59 °FClear.9 mph94%29.98 "Hg10 mi
Weather by CustomWeather, © 2014

See weather overview